Location: Beaurevoir
(49.9971°N, 3.3085°E)
Time: 06:54:13
(UTC+00:00)

Cosmos 1833 Rocket - Pass Details

Date: 23 May 2024
Orbit: 831 x 839 km, 71.0° (Epoch: 20 June)

Event Time Altitude Azimuth Distance (km) Brightness Sun altitude
Exits shadow 00:08:13 27° 226° (SW) 1,567 3.7 -19.2°
Maximum altitude 00:11:21 67° 302° (WNW) 905 2.9 -19.1°
Drops below altitude 10° 00:16:58 10° 25° (NNE) 2,454 6.2 -19.0°
Sets 00:19:26 0° 29° (NNE) 3,393 7.2 -18.9°
